CW8466 Weather Reports


Display with metric or nautical units.
time (UTC)temp
F
wind
direction
speed
MPH
gust
MPH
rain 1hr
in
rain 24hr
in
rain mn
in
humidity
%
barometer
mb
20260510044836 74 157 0.0 0.0 0.00 0.02 0.02 88 1011.0
20260510043334 74 157 0.0 0.0 0.00 0.02 0.02 87 1010.9
20260510041828 74 157 0.0 0.0 0.00 0.02 0.02 87 1010.6
20260510040359 75 143 0.0 0.0 0.00 0.02 0.02 86 1010.5
20260510034831 76 142 0.0 0.0 0.00 0.02 0.02 85 1010.6
20260510033342 76 144 0.0 0.0 0.00 0.02 0.02 86 1010.3
20260510031833 77 158 0.0 0.0 0.00 0.02 0.02 85 1010.2
20260510030345 77 180 0.0 0.0 0.00 0.02 0.02 84 1009.9
20260510024900 78 180 0.0 0.0 0.00 0.02 0.02 83 1009.5
20260510023342 78 180 0.0 0.0 0.00 0.02 0.02 82 1009.2
20260510021846 79 180 0.0 0.0 0.00 0.02 0.02 81 1009.0
20260510020336 80 179 0.0 0.0 0.00 0.02 0.02 81 1008.8
20260510014828 80 175 0.0 0.0 0.00 0.02 0.02 81 1008.7
20260510013340 81 174 1.0 7.0 0.00 0.02 0.02 79 1008.8
20260510011838 82 169 3.0 9.0 0.00 0.02 0.02 77 1008.9
20260510010331 83 165 4.0 7.0 0.00 0.02 0.02 75 1009.0
20260510004828 85 127 7.0 11.0 0.00 0.02 0.02 73 1008.8
20260510003343 86 167 10.0 14.0 0.00 0.02 0.02 71 1008.6
20260510001838 88 136 2.0 7.0 0.00 0.02 0.02 67 1008.1
20260510000335 89 132 1.0 7.0 0.00 0.02 0.02 65 1008.0
20260509234832 90 157 2.0 8.0 0.00 0.02 0.02 61 1007.8
20260509233350 90 145 5.0 8.0 0.00 0.02 0.02 62 1007.7
20260509231837 91 159 5.0 9.0 0.00 0.02 0.02 60 1007.8
20260509230328 92 315 0.0 3.0 0.00 0.02 0.02 58 1007.9
20260509224841 91 315 1.0 6.0 0.00 0.02 0.02 62 1007.8
20260509223329 92 306 0.0 3.0 0.00 0.02 0.02 61 1008.1
20260509221843 91 306 1.0 4.0 0.00 0.02 0.02 61 1008.0
20260509220346 90 309 2.0 4.0 0.00 0.02 0.02 64 1008.0
20260509214831 90 309 0.0 4.0 0.00 0.02 0.02 62 1008.1
20260509213336 91 311 1.0 5.0 0.00 0.02 0.02 61 1008.0
20260509211845 91 236 3.0 5.0 0.00 0.02 0.02 63 1008.1
20260509210335 90 355 2.0 5.0 0.00 0.02 0.02 63 1008.2
20260509204846 90 355 4.0 8.0 0.00 0.02 0.02 62 1008.3
20260509203337 91 5 2.0 5.0 0.00 0.02 0.02 63 1008.5
20260509201845 90 320 4.0 8.0 0.00 0.02 0.02 64 1008.6
20260509200337 90 297 4.0 8.0 0.00 0.02 0.02 64 1008.8
20260509194828 89 304 2.0 4.0 0.00 0.02 0.02 67 1009.0
20260509193342 89 313 1.0 9.0 0.00 0.02 0.02 67 1009.1
20260509191903 88 331 0.0 4.0 0.00 0.02 0.02 71 1009.3
20260509190401 88 329 2.0 6.0 0.00 0.02 0.02 70 1009.5
20260509184829 88 276 6.0 9.0 0.00 0.02 0.02 71 1009.6
20260509183339 87 302 1.0 6.0 0.00 0.02 0.02 72 1009.6
20260509181836 87 28 0.0 0.0 0.00 0.02 0.02 76 1009.8
20260509180328 87 277 4.0 10.0 0.00 0.02 0.02 71 1010.0
20260509174835 85 343 0.0 0.0 0.00 0.02 0.02 74 1010.2
20260509173353 85 5 0.0 0.0 0.00 0.02 0.02 77 1010.4
20260509171843 85 327 5.0 10.0 0.00 0.02 0.02 76 1010.3
20260509170332 84 323 3.0 9.0 0.00 0.02 0.02 76 1010.4
20260509164828 84 316 4.0 13.0 0.00 0.02 0.02 75 1010.5
20260509163333 83 296 0.0 8.0 0.00 0.02 0.02 76 1010.4
20260509161840 83 300 0.0 4.0 0.00 0.02 0.02 75 1009.9
20260509160353 82 281 2.0 6.0 0.00 0.02 0.02 80 1009.5
20260509154841 81 294 4.0 11.0 0.00 0.02 0.02 83 1010.2
20260509153403 81 257 4.0 10.0 0.00 0.02 0.02 84 1010.2
20260509151838 80 258 5.0 14.0 0.00 0.02 0.02 87 1010.0
20260509150327 79 218 6.0 11.0 0.00 0.02 0.02 92 1010.0
20260509144837 77 211 7.0 10.0 0.00 0.02 0.02 95 1010.1
20260509143326 76 297 0.0 3.0 0.00 0.02 0.02 98 1010.7
20260509141838 75 313 0.0 0.0 0.00 0.02 0.02 99 1011.1
20260509140335 75 313 0.0 0.0 0.00 0.02 0.02 99 1011.1
20260509134833 75 313 0.0 0.0 0.00 0.02 0.02 99 1010.8
20260509133341 74 313 0.0 0.0 0.00 0.02 0.02 100 1010.5
20260509131829 74 313 0.0 3.0 0.00 0.02 0.02 99 1010.4
20260509130344 75 349 0.0 0.0 0.00 0.02 0.02 98 1010.6
20260509124839 75 355 0.0 6.0 0.00 0.04 0.02 97 1010.4
20260509123329 75 346 3.0 5.0 0.00 0.04 0.02 97 1010.5
20260509121834 75 5 4.0 10.0 0.00 0.04 0.02 98 1010.5
20260509120344 74 323 11.0 17.0 0.01 0.04 0.02 99 1009.9
20260509114832 74 173 11.0 20.0 0.02 0.04 0.02 100 1007.6
20260509113341 74 184 17.0 28.0 0.02 0.04 0.02 100 1007.0
20260509111839 75 147 18.0 25.0 0.02 0.04 0.02 100 1007.3
20260509110327 74 174 10.0 17.0 0.01 0.03 0.01 100 1009.6
20260509104837 74 178 0.0 0.0 0.00 0.02 0.00 100 1010.2
20260509103351 74 153 0.0 0.0 0.00 0.02 0.00 100 1010.1
20260509101843 74 153 0.0 0.0 0.00 0.02 0.00 100 1009.7
20260509100334 74 153 0.0 0.0 0.00 0.02 0.00 100 1009.3
20260509094847 74 146 0.0 0.0 0.00 0.02 0.00 100 1009.1
20260509093336 73 134 0.0 0.0 0.00 0.02 0.00 100 1009.1
20260509091840 73 134 0.0 0.0 0.00 0.02 0.00 100 1009.1
20260509090351 73 134 0.0 0.0 0.00 0.02 0.00 100 1008.8
20260509084858 73 134 0.0 0.0 0.00 0.02 0.00 100 1009.2
20260509083330 73 134 0.0 0.0 0.00 0.02 0.00 100 1009.1
20260509081844 73 134 0.0 0.0 0.00 0.02 0.00 100 1009.0
20260509080342 73 134 0.0 0.0 0.00 0.02 0.00 100 1009.1
20260509074839 73 134 0.0 0.0 0.00 0.02 0.00 100 1009.1
20260509073403 72 136 0.0 0.0 0.00 0.02 0.00 100 1009.1
20260509071832 72 136 0.0 0.0 0.00 0.02 0.00 100 1009.5
20260509070336 73 131 0.0 0.0 0.00 0.02 0.00 100 1009.6
20260509064854 73 131 0.0 0.0 0.00 0.02 0.00 100 1009.8
20260509063340 73 131 0.0 0.0 0.00 0.02 0.00 100 1010.2
20260509061854 73 131 0.0 0.0 0.00 0.02 0.00 100 1010.3
20260509060347 73 128 0.0 0.0 0.00 0.02 0.00 100 1010.2
20260509054839 73 128 0.0 0.0 0.00 0.02 0.00 100 1010.2
20260509053358 73 128 0.0 0.0 0.00 0.02 0.00 100 1010.3
20260509051836 74 125 0.0 0.0 0.00 0.02 0.00 100 1010.1
20260509050339 74 124 0.0 0.0 0.00 0.02 0.00 100 1010.3